TimeEDT,TemperatureF,Dew PointF,Humidity,Sea Level PressureIn,VisibilityMPH,Wind Direction,Wind SpeedMPH,Gust SpeedMPH,PrecipitationIn,Events,Conditions,WindDirDegrees,DateUTC
12:53 AM,33.1,28.0,82,30.08,10.0,Calm,Calm,-,N/A,,Clear,0,2014-04-12 04:53:00
1:53 AM,32.0,28.0,85,30.08,10.0,Calm,Calm,-,N/A,,Clear,0,2014-04-12 05:53:00
2:53 AM,30.9,27.0,85,30.10,10.0,Calm,Calm,-,N/A,,Partly Cloudy,0,2014-04-12 06:53:00
3:53 AM,33.1,27.0,78,30.11,10.0,Calm,Calm,-,N/A,,Mostly Cloudy,0,2014-04-12 07:53:00
4:53 AM,28.9,26.1,89,30.13,10.0,Calm,Calm,-,N/A,,Clear,0,2014-04-12 08:53:00
5:53 AM,30.0,27.0,88,30.14,10.0,SE,3.5,-,N/A,,Clear,130,2014-04-12 09:53:00
6:25 AM,32.0,28.9,88,30.15,10.0,ESE,4.6,-,N/A,,Mostly Cloudy,120,2014-04-12 10:25:00
6:53 AM,33.1,30.0,89,30.15,10.0,ESE,3.5,-,N/A,,Scattered Clouds,110,2014-04-12 10:53:00
7:53 AM,36.0,32.0,86,30.18,10.0,Calm,Calm,-,N/A,,Partly Cloudy,0,2014-04-12 11:53:00
8:53 AM,43.0,36.0,76,30.19,10.0,SE,3.5,-,N/A,,Clear,130,2014-04-12 12:53:00
9:53 AM,46.9,37.0,68,30.19,10.0,Calm,Calm,-,N/A,,Clear,0,2014-04-12 13:53:00
10:53 AM,52.0,37.0,57,30.21,10.0,West,6.9,-,N/A,,Clear,260,2014-04-12 14:53:00
11:53 AM,55.9,36.0,47,30.19,10.0,Variable,6.9,-,N/A,,Clear,0,2014-04-12 15:53:00
12:53 PM,59.0,36.0,42,30.18,10.0,WNW,11.5,-,N/A,,Clear,300,2014-04-12 16:53:00
1:53 PM,61.0,32.0,34,30.17,10.0,WSW,15.0,-,N/A,,Clear,250,2014-04-12 17:53:00
2:53 PM,63.0,30.9,30,30.16,10.0,West,16.1,25.3,N/A,,Clear,260,2014-04-12 18:53:00
3:53 PM,63.0,30.9,30,30.15,10.0,WSW,8.1,17.3,N/A,,Clear,240,2014-04-12 19:53:00
4:53 PM,63.0,30.9,30,30.15,10.0,WSW,9.2,-,N/A,,Clear,240,2014-04-12 20:53:00
5:53 PM,62.1,32.0,32,30.14,10.0,West,8.1,-,N/A,,Clear,280,2014-04-12 21:53:00
6:53 PM,60.1,30.9,33,30.14,10.0,NE,6.9,-,N/A,,Clear,40,2014-04-12 22:53:00
7:53 PM,57.0,30.9,37,30.13,10.0,NE,5.8,-,N/A,,Clear,50,2014-04-12 23:53:00
8:53 PM,54.0,30.9,41,30.15,10.0,ENE,4.6,-,N/A,,Clear,70,2014-04-13 00:53:00
9:53 PM,53.1,30.0,41,30.15,10.0,East,6.9,-,N/A,,Clear,80,2014-04-13 01:53:00
10:53 PM,52.0,28.9,41,30.13,10.0,East,6.9,-,N/A,,Clear,80,2014-04-13 02:53:00
11:53 PM,52.0,28.9,41,30.12,10.0,East,8.1,-,N/A,,Scattered Clouds,90,2014-04-13 03:53:00